KINEIS-3E

Last updated on Thu Sep 24 2026 00:03:12 GMT+0000 (Coordinated Universal Time)

1 61222U 24172C 26266.18422665 .00001137 00000+0 18736-3 0 9994 2 61222 98.0402 355.0181 0001454 119.4976 240.6377 14.72393184107775
UTC large
Height (km)
Speed (km/s)
/
Latitude / Longitude
Inclination (degrees)
Orbital Period (minutes)
Azimuth
Elevation
Range (km)
Doppler Factor

Next 0 passes for location: London (51.5072 / 0.1276)

No passes found over London.
KINEIS-3E